Regional Weather Roundup
Issued by NWS Grand Forks, ND

Home | Current Version | Previous Version | Graphics & Text | Print | Product List | Glossary On
Versions: 1 2 3 4 5 6 7 8 9 10 11 12 13 14 15 16 17 18 19 20 21 22 23 24 25 26 27 28 29 30 31 32 33 34 35 36 37 38 39 40 41 42 43 44 45 46 47 48 49 50
000
ASUS43 KFGF 222110
RWRFGF
PRAIRIE TO PINES  WEATHER ROUNDUP
NATIONAL WEATHER SERVICE EASTERN NORTH DAKOTA/GRAND FORKS ND
300 PM CST MON DEC 22 2014

 **SATELLITE DATA USED TO AUGMENT SKY COVER AT AUTOMATED STATIONS**
 *****  WEATHER ACROSS EASTERN NORTH DAKOTA  *****

CITY           SKY/WX    TMP DP  RH WIND       PRES   REMARKS
GRAND FORKS    LGT RAIN  37  36  96 CALM      29.56R FOG
GRAND FRKS AFB LGT RAIN  36  36 100 E6        29.57R FOG
DEVILS LAKE    CLOUDY    34  32  93 NE12      29.55R
FARGO          CLOUDY    41  38  89 E12       29.51R
WAHPETON ARPT  CLOUDY    36  34  93 E12       29.50R
$$

 ***** WEATHER ACROSS CENTRAL AND WESTERN NORTH DAKOTA  *****

CITY           SKY/WX    TMP DP  RH WIND       PRES   REMARKS
BISMARCK       CLOUDY    31  30  96 N13       29.53R WCI  21
MINOT          CLOUDY    28  25  88 NW13      29.60R WCI  17
JAMESTOWN      MIX PCPN  34  32  92 NE12      29.48R FOG
MINOT AFB      CLOUDY    28  28 100 N10       29.61R WCI  19
GARRISON         N/A     29  27  92 N10       29.58R WCI  20
WILLISTON      CLOUDY    27  22  81 N14       29.67R WCI  16
DICKINSON      LGT SNOW  26  22  84 NW18G30   29.56R VSB 3/4 WCI  13
HETTINGER      LGT SNOW  26  21  81 NW26G38   29.56R WCI  10
$$

 *****  OTHER AIRPORT OBSERVATIONS IN OUR AREA  *****

CITY           SKY/WX    TMP DP  RH WIND       PRES   REMARKS
WALHALLA       LGT SNOW  32  32 100 N7        29.62R
GRAFTON AIRPOR NOT AVBL
VALLEY CITY AR FOG       36  36 100 NE8       29.49R VSB 1/4
CANDO          CLOUDY    32  32 100 NE10      29.58R FOG     WCI  24
CAVALIER APRT  CLOUDY    34  34 100 NE7         N/A  FOG
GWINNER        CLOUDY    39  39 100 E13       29.46R VSB 1
ROLLA          NOT AVBL
 ***** THE ABOVE OBSERVATIONS ARE NON NWS ARE NOT QUALITY
       CONTROLLED AND MAY MIS-REPORT RAIN FOR SNOW...
$$

  *****  WEATHER ACROSS NORTHERN MINNESOTA  *****

CITY           SKY/WX    TMP DP  RH WIND       PRES   REMARKS
FLAG ISLAND    CLOUDY    34  34 100 E7        29.64R FOG
WARROAD        DRIZZLE   34  30  86 E8        29.63R
ROSEAU         CLOUDY    36  30  80 NE6       29.62R HAZE
HALLOCK        CLOUDY    36  34  93 NE7       29.60R FOG
THF RVR FALLS  CLOUDY    36  36 100 E6        29.58R
BAUDETTE       CLOUDY    35  33  92 E7        29.62R
WASKISH        CLOUDY    37  36  93 CALM      29.62R
CROOKSTON      MIX PCPN  37  36  93 E6        29.57R
STEPHEN NDAWN    N/A     34  34 100 E6          N/A
GREENBUSH NDAW   N/A     34  34 100 NE7         N/A
$$
  *****  WEATHER ACROSS CENTRAL AND WEST MINNESOTA  *****

CITY           SKY/WX    TMP DP  RH WIND       PRES   REMARKS
FOSSTON        CLOUDY    36  36 100 E5        29.57R
BEMIDJI        CLOUDY    35  33  95 SE10      29.58R
PARK RAPIDS    LGT RAIN  35  34  96 E9        29.56R FOG
ELBOW LAKE     DRIZZLE   35  34  96 E13       29.50R
WADENA         DRIZZLE   34  34 100 E12       29.55R
DETROIT LAKES  CLOUDY    36  36 100 SE14      29.54R
MOORHEAD       CLOUDY    39  39 100 SE8       29.52R
FERGUS FALLS   CLOUDY    36  36 100 SE14      29.53R
MORRIS MN      LGT RAIN  36  36 100 SE15      29.48R
STAPLES        DRIZZLE   34  34 100 E6        29.56R
$$
  *****  WEATHER ELSEWHERE ACROSS MINNESOTA  *****

CITY           SKY/WX    TMP DP  RH WIND       PRES   REMARKS
DULUTH         FOG       34  32  92 SE14      29.66R VSB 1/4 WCI  25
INTRNTL FALLS  MIX PCPN  34  33  96 E7        29.65R
ELY            LGT RAIN  34  32  93 SE5       29.68R
CLOQUET        SNOW      34  34 100 E7        29.65S VSB<1/4
WHEATON        LGT RAIN  36  36 100 E20       29.48S
BRAINERD       CLOUDY    34  33  96 SE8       29.59R FOG
HIBBING        CLOUDY    34  32  92 SE10      29.66R FOG
ALEXANDRIA     CLOUDY    35  33  92 E12       29.52R
SAINT CLOUD    MIX PCPN  37  33  85 E7        29.57S FOG
MINNEAPOLIS    LGT RAIN  36  33  89 E10       29.60S FOG
$$

  *****  WEATHER ACROSS SOUTH DAKOTA  *****

CITY           SKY/WX    TMP DP  RH WIND       PRES   REMARKS
SIOUX FALLS    DRZL/FOG  40  39  97 CALM      29.40R VSB 3/4
BROOKINGS      NOT AVBL
WATERTOWN      CLOUDY    37  35  92 S7        29.39R
HURON          CLOUDY    34  31  88 NW7       29.41R
SISSETON         N/A     37  37 100 SE15      29.43R
ABERDEEN       LGT RAIN  37  36  96 N6        29.42R FOG
MITCHELL       CLOUDY    37  35  92 N5        29.42S
PIERRE         CLOUDY    33  30  88 NW18G31   29.44S WCI  22
MOBRIDGE       LGT SNOW  31  29  92 N15G25    29.45R FOG     WCI  20
RAPID CITY     PTSUNNY   41  22  46 NW46G55   29.51R
$$

  *****  SOME WEATHER IN NEARBY STATES *****

CITY           SKY/WX    TMP DP  RH WIND       PRES   REMARKS
GLASGOW MT     CLOUDY    31  24  75 N17       29.76R WCI  19
GREAT FALLS MT CLOUDY    41  20  43 NW17G28   29.91R
CHEYENNE WY    PTSUNNY   31  18  58 NW20G36   29.65S WCI  19
SCOTTSBLUFF NE PTSUNNY   40  25  55 NW28G39   29.64R
OMAHA NE       LGT RAIN  43  42  97 SE6       29.41F FOG
DES MOINES IA  LGT RAIN  41  38  89 SE9       29.47F FOG
DAVENPORT IA   CLOUDY    36  34  92 SE13      29.59F FOG
CHICAGO IL     LGT RAIN  36  34  92 E13       29.71F FOG
EAU CLAIRE WI  PTSUNNY   39  33  79 E10       29.66S
LA CROSSE WI   CLOUDY    40  34  79 SE7       29.64F
$$

  *****  SOME NATIONAL WEATHER *****

CITY           SKY/WX    TMP DP  RH WIND       PRES   REMARKS
LA GUARDIA NY  DRIZZLE   43  37  81 NE9       30.24S FOG
RALEIGH NC     DRIZZLE   38  35  89 NE6       30.06R FOG
ATLANTA GA     LGT RAIN  46  44  93 E8        29.93R VSB 1
NEW ORLEANS LA PTSUNNY   75  66  73 S20       29.71S
OKLAHOMA CITY  PTSUNNY   58  38  47 NW18      29.59R
ALBUQUERQUE NM PTSUNNY   60  26  27 NW26G32   29.70F
SALT LAKE CITY PTSUNNY   43  36  76 N8        29.99S
LOS ANGELES CA MOSUNNY   65  59  81 W9        29.99F
BOISE ID       SUNNY     47  31  53 NW25G31   30.17S
SEATTLE WA     PTSUNNY   51  41  68 W3        30.37R
$$

*** WEATHER ACROSS MANITOBA...SASKATCHEWAN AND ONTARIO ***
                ***ONTARIO***

CITY           SKY/WX    TMP DP  RH WIND       PRES   REMARKS
GERALDTON      LGT SNOW  34  32  93 SE5       29.84
THUNDER BAY    LGT RAIN  36  34  93 E6        29.80R
SIOUX LOOKOUT  NOT AVBL
TORONTO        NOT AVBL
BIG TROUT LK   FLURRIES  30  30 100 CALM      29.81R
PICKLE LAKE    FLURRIES  32  30  93 E3        29.76R
DRYDEN         MIX PCPN  34  34 100 E3        29.69R
KENORA         CLOUDY    34  32  93 E6        29.67R FOG
$$
                *** MANITOBA***

CITY           SKY/WX    TMP DP  RH WIND       PRES   REMARKS
BRANDON        NOT AVBL
DAUPHIN        LGT SNOW  28  28 100 N10       29.74R WCI  19
ISLAND LAKE    NOT AVBL
PILOT MOUND      N/A     32  30  93 NE9         N/A  WCI  24
THE PAS        LGT SNOW  25  23  93 N6        29.85R WCI  18
THOMPSON       FRZ DRZL  18  16  93 NE8       29.92R FOG     WCI   7
WINNIPEG       NOT AVBL
LYNN LAKE      FLURRIES   9   7  92 CALM      29.93R
GILLAM           N/A     10   9  92 N2        29.94R
$$
                ***SASKATCHEWAN***

CITY           SKY/WX    TMP DP  RH WIND       PRES   REMARKS
ESTEVAN        FOG       28  28 100 N12       29.66R VSB 1   WCI  18
KINDERSLEY     CLOUDY    27  23  86 NW12      29.84R WCI  16
LLOYDMINSTER   CLOUDY    19  19 100 W6        29.84R FOG     WCI  11
PRINCE ALBERT  CLOUDY    23  21  93 NW5       29.84R WCI  17
REGINA         CLOUDY    23  23 100 N12       29.75R FOG     WCI  12
YORKTON        CLOUDY    27  27 100 N12       29.74R WCI  16
N. BATTLEFORD  LGT SNOW  21  19  93 NW6       29.87R WCI  14
LA RONGE       LGT SNOW  19  18  93 NE3       29.87R
SASKATOON      FLURRIES  21  19  93 N7        29.85R WCI  13
SWIFT CURRENT  LGT SNOW  21  18  86 NW17      29.79R WCI   7
$$
NOTE: THESE ARE AUTOMATED STATIONS WITH LIMITED QUALITY CONTROL
      "FAIR" INDICATES FEW OR NO CLOUDS BELOW 12,000 FEET WITH NO
      SIGNIFICANT WEATHER AND/OR OBSTRUCTIONS TO VISIBILITY.
      SKY/WX - SKY CONDITION AND SIGNIFICANT WEATHER.
      TMP - AIR TEMPERATURE.    DP   - DEWPOINT TEMPERATURE.
      RH  - RELATIVE HUMIDITY.  PRES - PRESSURE.
      HX  - HEAT INDEX.         WCI  - WIND CHILL INDEX.
$



USA.gov is the U.S. government's official web portal to all federal, state and local government web resources and services.